User: anonymous   Login
Location: ?????
(54.9266°N, 38.5527°E)
Time: 09:06:31
(UTC+00:00)
Language:

Cosmos 1626 - Orbit

View from above orbital plane
View from above orbital plane
View from above satellite
View from above satellite

Ground track
Ground track

The orbit data is extracted from the following two-line orbital elements,

1 15494U 85009A   24169.88360406  .00032694  00000-0  50361-3 0  9994
2 15494  82.4649 189.6803 0003755 111.6004 248.5649 15.54020512158935
Epoch (UTC): 17 June 2024 21:12:23
Eccentricity: 0.0003755
inclination: 82.4649°
perigee height: 402 km
apogee height: 407 km
right ascension of ascending node: 189.6803°
argument of perigee: 111.6004°
revolutions per day: 15.54020512
mean anomaly at epoch: 248.5649°
orbit number at epoch: 15893

The dashed part of the orbit path shows where the satellite is in the earth's shadow,  

DLR